Printer-friendly version
Follow the MPC on Twitter Follow the MPC on Facebook The MPC blog
Minor Planet Center

MPEC 2003-U62 : 2003 UE22

The following Minor Planet Electronic Circular may be linked-to from your own Web pages, but must not otherwise be redistributed electronically.

A form allowing access to any MPEC is at the bottom of this page.


Read MPEC 2003-U61 Read MPEC 2003-U63


M.P.E.C. 2003-U62                                Issued 2003 Oct. 24, 18:01 UT

     The Minor Planet Electronic Circulars contain information on unusual
         minor planets and routine data on comets.  They are published
   on behalf of Commission 20 of the International Astronomical Union by the
          Minor Planet Center, Smithsonian Astrophysical Observatory,
                          Cambridge, MA 02138, U.S.A.

         Supported in part by the Steven and Michele Kirsch Foundation
             Prepared using the Tamkin Foundation Computer Network

                              MPC@CFA.HARVARD.EDU
          URL http://cfa-www.harvard.edu/iau/mpc.html  ISSN 1523-6714

                                   2003 UE22

Observations:
     K03U22E* C2003 10 23.27080 01 25 50.34 +07 35 41.9          19.4        704
     K03U22E  C2003 10 23.28323 01 25 54.84 +07 38 12.0          19.9        704
     K03U22E  C2003 10 23.29544 01 25 59.27 +07 40 37.4          19.5        704
     K03U22E  C2003 10 23.30764 01 26 03.68 +07 43 03.7          19.7        704
     K03U22E  C2003 10 23.31973 01 26 08.08 +07 45 29.0          20.0        704
     K03U22E  C2003 10 24.17434 01 32 01.78 +10 35 13.3          19.1 R      649
     K03U22E  C2003 10 24.17560 01 32 02.26 +10 35 28.4          19.3 R      649
     K03U22E  C2003 10 24.17683 01 32 02.68 +10 35 43.6          19.0 R      649
     K03U22E  C2003 10 24.18172 01 32 04.83 +10 36 46.0          19.8 R      H36
     K03U22E  C2003 10 24.19062 01 32 07.87 +10 38 26.0          18.9 R      H36
     K03U22E  C2003 10 24.19900 01 32 11.08 +10 40 03.7          19.7 R      H36
     K03U22E  C2003 10 24.21601 01 32 18.69 +10 43 39.0          19.4 R      448
     K03U22E  C2003 10 24.22225 01 32 20.95 +10 44 52.8          19.3 R      448
     K03U22E  C2003 10 24.22850 01 32 23.24 +10 46 06.6          19.3 R      448

Observer details:
448 Desert Moon Observatory.  Observer B. L. Stevens.  0.3-m
    Schmidt-Cassegrain + CCD.
649 Powell Observatory, Louisburg.  Observer R. Fredrick.  0.75-m Newtonian
    + CCD.
704 Lincoln Laboratory ETS, New Mexico.  Observers M. Blythe, F. Shelly,
    M. Bezpalko, R. Huber, L. Manguso, D. Torres, R. Kracke, M. McCleary,
    H. Stange.  Measurers J. Stuart, R. Sayer, J. Evans, J. Kommers.  1.0-m
    f/2.15 reflector + CCD.
H36 Sandlot Observatory, Scranton.  Observer G. Hug.

Orbital elements:
2003 UE22
Epoch 2003 Oct. 8.0 TT = JDT 2452920.5                  MPC
M 356.63898              (2000.0)            P               Q
n   0.27286876     Peri.  356.09900     +0.90114562     -0.42784768
a   2.3541466      Node    29.54716     +0.40147996     +0.76282586
e   0.5487966      Incl.    8.14625     +0.16355557     +0.48481240
P   3.61           H   24.8           G   0.15
From 12 observations 2003 Oct. 23-24.

Ephemeris:
2003 UE22                a,e,i = 2.35, 0.55, 8                   q = 1.0622
Date    TT    R. A. (2000) Decl.     Delta      r     Elong.  Phase     V
2003 10 18    00 51.11   -09 41.5    0.071    1.063   158.7    19.9    20.3
2003 10 23    01 24.00   +06 42.2    0.068    1.063   172.5     7.0    19.7
2003 10 28    01 58.03   +22 20.6    0.074    1.066   170.3     9.0    20.0
2003 11 02    02 30.68   +34 09.5    0.086    1.074   160.4    18.1    20.7
2003 11 07    02 59.81   +41 54.2    0.103    1.084   154.0    23.6    21.2
2003 11 12    03 24.21   +46 38.7    0.122    1.098   150.6    26.2    21.7
2003 11 17    03 43.68   +49 24.6    0.144    1.115   149.2    27.0    22.1

Kyle E. Smalley              (C) Copyright 2003 MPC           M.P.E.C. 2003-U62

Read MPEC 2003-U61 Read MPEC 2003-U63


MPEC number:

Enter an MPEC number in one of the following forms:

  • 1997-B01 (the full form)
  • J97B01 (the packed version of the full form)
  • B01 (the abbreviated form)

Valid HTML 4.01!